| time (UTC) | temp F | wind direction | speed knots | gust knots | rain 1hr in | rain 24hr in | rain mn in | humidity % | barometer mb |
| 20260507124551 | 69 | 129 | 6.1 | 13.0 | 0.00 | 0.00 | 0.00 | 68 | 1011.2 |
| 20260507123028 | 69 | 112 | 8.7 | 14.8 | 0.00 | 0.00 | 0.00 | 66 | 1011.3 |
| 20260507121528 | 68 | 125 | 7.0 | 14.8 | 0.00 | 0.00 | 0.00 | 66 | 1011.3 |
| 20260507120023 | 69 | 121 | 7.0 | 13.9 | 0.00 | 0.00 | 0.00 | 65 | 1011.2 |
| 20260507114509 | 69 | 130 | 5.2 | 12.2 | 0.00 | 0.00 | 0.00 | 70 | 1011.2 |
| 20260507113052 | 68 | 126 | 7.0 | 13.0 | 0.00 | 0.00 | 0.00 | 66 | 1011.3 |
| 20260507111551 | 69 | 121 | 6.1 | 11.3 | 0.00 | 0.00 | 0.00 | 64 | 1011.5 |
| 20260507110033 | 69 | 132 | 7.8 | 14.8 | 0.00 | 0.00 | 0.00 | 62 | 1011.7 |
| 20260507104533 | 69 | 133 | 8.7 | 14.8 | 0.00 | 0.00 | 0.00 | 65 | 1011.6 |
| 20260507103015 | 69 | 121 | 7.0 | 13.9 | 0.00 | 0.00 | 0.00 | 65 | 1011.7 |
| 20260507101516 | 69 | 126 | 4.3 | 12.2 | 0.00 | 0.00 | 0.00 | 65 | 1011.7 |
| 20260507100057 | 68 | 128 | 7.0 | 13.0 | 0.00 | 0.00 | 0.00 | 63 | 1011.8 |
| 20260507094556 | 68 | 125 | 5.2 | 11.3 | 0.00 | 0.00 | 0.00 | 66 | 1011.7 |
| 20260507093040 | 70 | 36 | 1.7 | 5.2 | 0.00 | 0.00 | 0.00 | 65 | 1011.7 |
| 20260507091537 | 70 | 22 | 2.6 | 7.0 | 0.00 | 0.00 | 0.00 | 66 | 1011.6 |
| 20260507090022 | 71 | 19 | 3.5 | 7.8 | 0.00 | 0.00 | 0.00 | 63 | 1011.4 |
| 20260507084517 | 72 | 242 | 0.9 | 6.1 | 0.00 | 0.00 | 0.00 | 61 | 1011.3 |
| 20260507083058 | 70 | 235 | 0.9 | 7.0 | 0.00 | 0.00 | 0.00 | 48 | 1011.1 |
| 20260507081600 | 70 | 163 | 0.9 | 7.0 | 0.00 | 0.00 | 0.00 | 49 | 1011.2 |
| 20260507080034 | 69 | 165 | 2.6 | 6.1 | 0.00 | 0.00 | 0.00 | 52 | 1011.2 |
| 20260507074551 | 69 | 236 | 1.7 | 7.0 | 0.00 | 0.00 | 0.00 | 53 | 1011.3 |
| 20260507073012 | 68 | 186 | 0.9 | 6.1 | 0.00 | 0.00 | 0.00 | 58 | 1011.3 |
| 20260507071508 | 66 | 208 | 0.9 | 8.7 | 0.00 | 0.00 | 0.00 | 63 | 1011.2 |
| 20260507070049 | 66 | 204 | 4.3 | 7.8 | 0.00 | 0.00 | 0.00 | 67 | 1011.2 |
| 20260507064546 | 65 | 225 | 0.9 | 8.7 | 0.00 | 0.00 | 0.00 | 70 | 1011.1 |
| 20260507063034 | 65 | 240 | 1.7 | 7.8 | 0.00 | 0.00 | 0.00 | 71 | 1011.1 |
| 20260507061533 | 65 | 232 | 0.9 | 4.3 | 0.00 | 0.00 | 0.00 | 72 | 1011.0 |
| 20260507060029 | 64 | 232 | 0.9 | 5.2 | 0.00 | 0.00 | 0.00 | 74 | 1011.0 |
| 20260507054526 | 64 | 235 | 0.9 | 4.3 | 0.00 | 0.00 | 0.00 | 75 | 1010.8 |
| 20260507053021 | 62 | 236 | 0.0 | 1.7 | 0.00 | 0.00 | 0.00 | 79 | 1010.7 |
| 20260507051518 | 60 | 236 | 0.0 | 2.6 | 0.00 | 0.00 | 0.00 | 83 | 1010.5 |
| 20260507050025 | 58 | 235 | 0.0 | 2.6 | 0.00 | 0.00 | 0.00 | 84 | 1010.3 |
| 20260507044516 | 57 | 235 | 0.0 | 1.7 | 0.00 | 0.00 | 0.00 | 83 | 1010.3 |
| 20260507043056 | 57 | 235 | 0.0 | 0.9 | 0.00 | 0.00 | 0.00 | 83 | 1010.2 |
| 20260507041602 | 57 | 235 | 0.0 | 0.0 | 0.00 | 0.00 | 0.00 | 83 | 1010.2 |
| 20260507040044 | 57 | 235 | 0.0 | 1.7 | 0.00 | 0.00 | 0.00 | 82 | 1010.1 |
| 20260507034542 | 58 | 235 | 0.0 | 2.6 | 0.00 | 0.00 | 0.00 | 81 | 1010.2 |
| 20260507033042 | 58 | 235 | 1.7 | 4.3 | 0.00 | 0.00 | 0.00 | 82 | 1010.2 |
| 20260507031546 | 58 | 235 | 0.0 | 1.7 | 0.00 | 0.00 | 0.00 | 81 | 1010.2 |
| 20260507030047 | 59 | 235 | 0.0 | 1.7 | 0.00 | 0.00 | 0.00 | 80 | 1010.3 |
| 20260507024541 | 59 | 235 | 0.9 | 3.5 | 0.00 | 0.00 | 0.00 | 80 | 1010.1 |
| 20260507023033 | 59 | 236 | 0.0 | 6.1 | 0.00 | 0.00 | 0.00 | 80 | 1010.2 |
| 20260507021532 | 60 | 248 | 1.7 | 7.0 | 0.00 | 0.00 | 0.00 | 81 | 1010.1 |
| 20260507020010 | 60 | 259 | 3.5 | 11.3 | 0.00 | 0.00 | 0.00 | 81 | 1010.0 |
| 20260507014508 | 60 | 279 | 0.9 | 3.5 | 0.00 | 0.05 | 0.00 | 81 | 1010.0 |
| 20260507013049 | 60 | 274 | 0.9 | 9.6 | 0.00 | 0.05 | 0.00 | 81 | 1009.8 |
| 20260507011549 | 60 | 273 | 0.9 | 9.6 | 0.00 | 0.05 | 0.00 | 81 | 1009.8 |
| 20260507010033 | 60 | 251 | 0.9 | 7.0 | 0.00 | 0.05 | 0.00 | 81 | 1009.7 |
| 20260507004530 | 60 | 267 | 3.5 | 9.6 | 0.00 | 0.07 | 0.00 | 82 | 1009.7 |
| 20260507003013 | 60 | 260 | 2.6 | 9.6 | 0.00 | 0.07 | 0.00 | 81 | 1009.8 |
| 20260507001519 | 60 | 262 | 4.3 | 10.4 | 0.00 | 0.07 | 0.00 | 81 | 1009.8 |
| 20260507000054 | 60 | 238 | 2.6 | 9.6 | 0.00 | 0.07 | 0.00 | 81 | 1009.9 |
| 20260506234554 | 60 | 254 | 4.3 | 8.7 | 0.00 | 0.07 | 0.00 | 81 | 1009.9 |
| 20260506233041 | 60 | 262 | 2.6 | 13.0 | 0.00 | 0.07 | 0.00 | 80 | 1010.0 |
| 20260506231536 | 60 | 273 | 5.2 | 11.3 | 0.00 | 0.07 | 0.00 | 81 | 1009.9 |
| 20260506230018 | 60 | 259 | 2.6 | 8.7 | 0.00 | 0.07 | 0.00 | 82 | 1010.0 |
| 20260506224517 | 60 | 259 | 4.3 | 9.6 | 0.00 | 0.10 | 0.00 | 81 | 1010.0 |
| 20260506223117 | 60 | 261 | 2.6 | 10.4 | 0.00 | 0.10 | 0.00 | 81 | 1010.0 |
| 20260506221559 | 60 | 248 | 3.5 | 8.7 | 0.00 | 0.10 | 0.00 | 82 | 1010.1 |
| 20260506220059 | 60 | 246 | 2.6 | 7.8 | 0.00 | 0.10 | 0.00 | 83 | 1010.0 |
| 20260506214539 | 60 | 248 | 3.5 | 8.7 | 0.00 | 0.12 | 0.00 | 82 | 1009.9 |
| 20260506213038 | 60 | 253 | 4.3 | 8.7 | 0.00 | 0.12 | 0.00 | 82 | 1009.9 |
| 20260506211520 | 61 | 256 | 3.5 | 12.2 | 0.00 | 0.12 | 0.00 | 81 | 1009.8 |
| 20260506210018 | 61 | 247 | 5.2 | 11.3 | 0.00 | 0.12 | 0.00 | 81 | 1009.8 |
| 20260506204600 | 61 | 265 | 5.2 | 11.3 | 0.00 | 0.21 | 0.00 | 80 | 1009.7 |
| 20260506203059 | 61 | 234 | 4.3 | 15.6 | 0.00 | 0.21 | 0.00 | 78 | 1009.7 |
| 20260506201540 | 61 | 239 | 5.2 | 11.3 | 0.00 | 0.21 | 0.00 | 76 | 1009.6 |
| 20260506200038 | 61 | 238 | 3.5 | 8.7 | 0.00 | 0.21 | 0.00 | 74 | 1009.3 |
| 20260506194520 | 62 | 219 | 2.6 | 7.8 | 0.00 | 0.21 | 0.00 | 73 | 1009.1 |
| 20260506193017 | 62 | 205 | 0.9 | 7.0 | 0.00 | 0.21 | 0.00 | 70 | 1009.0 |
| 20260506191559 | 62 | 199 | 4.3 | 12.2 | 0.00 | 0.21 | 0.00 | 69 | 1008.7 |
| 20260506184541 | 62 | 234 | 2.6 | 11.3 | 0.00 | 0.21 | 0.00 | 66 | 1008.2 |
| 20260506183039 | 62 | 238 | 4.3 | 13.0 | 0.00 | 0.21 | 0.00 | 68 | 1007.9 |
| 20260506181522 | 63 | 247 | 3.5 | 10.4 | 0.00 | 0.21 | 0.00 | 68 | 1007.9 |
| 20260506180022 | 63 | 236 | 3.5 | 8.7 | 0.00 | 0.21 | 0.00 | 67 | 1007.9 |
| 20260506174504 | 64 | 250 | 3.5 | 9.6 | 0.00 | 0.21 | 0.00 | 65 | 1007.8 |
| 20260506173003 | 64 | 250 | 5.2 | 14.8 | 0.00 | 0.21 | 0.00 | 65 | 1007.6 |
| 20260506171549 | 66 | 271 | 7.0 | 16.5 | 0.00 | 0.21 | 0.00 | 63 | 1007.7 |
| 20260506170057 | 66 | 217 | 3.5 | 13.0 | 0.00 | 0.21 | 0.00 | 62 | 1007.6 |
| 20260506164532 | 67 | 246 | 6.1 | 13.0 | 0.00 | 0.21 | 0.00 | 61 | 1007.7 |
| 20260506163053 | 68 | 242 | 7.0 | 13.0 | 0.00 | 0.21 | 0.00 | 61 | 1007.9 |
| 20260506161530 | 68 | 235 | 6.1 | 15.6 | 0.00 | 0.21 | 0.00 | 62 | 1008.0 |
| 20260506160027 | 68 | 267 | 6.1 | 14.8 | 0.00 | 0.21 | 0.00 | 64 | 1008.1 |
| 20260506154526 | 67 | 213 | 6.1 | 10.4 | 0.00 | 0.21 | 0.00 | 68 | 1008.1 |
| 20260506153024 | 68 | 248 | 6.1 | 13.0 | 0.00 | 0.21 | 0.00 | 70 | 1008.2 |
| 20260506151524 | 67 | 238 | 5.2 | 12.2 | 0.00 | 0.21 | 0.00 | 72 | 1008.2 |
| 20260506150027 | 68 | 250 | 5.2 | 13.9 | 0.00 | 0.21 | 0.00 | 72 | 1008.3 |
| 20260506144505 | 69 | 208 | 4.3 | 12.2 | 0.00 | 0.21 | 0.00 | 72 | 1008.3 |
| 20260506143005 | 68 | 212 | 5.2 | 14.8 | 0.00 | 0.21 | 0.00 | 73 | 1008.3 |
| 20260506141547 | 68 | 205 | 4.3 | 11.3 | 0.00 | 0.21 | 0.00 | 74 | 1008.2 |
| 20260506140048 | 69 | 233 | 5.2 | 13.0 | 0.00 | 0.21 | 0.00 | 73 | 1008.2 |
| 20260506134529 | 69 | 280 | 6.1 | 13.9 | 0.00 | 0.21 | 0.00 | 74 | 1008.2 |
| 20260506133028 | 68 | 250 | 6.1 | 13.9 | 0.00 | 0.21 | 0.00 | 75 | 1008.3 |
| 20260506131514 | 68 | 223 | 7.0 | 13.0 | 0.00 | 0.21 | 0.00 | 76 | 1008.4 |
| 20260506130010 | 68 | 215 | 4.3 | 10.4 | 0.00 | 0.21 | 0.00 | 75 | 1008.6 |